When you browse on this site, cookies collect data to enhance your experience and personalize the content and advertising you see.
Visit our Privacy Policy to learn more. By continuing to use the site, you agree to this use of cookies and data.
  • en France
  • Liste des pays
  • À 7 jours
  • Température de l'eau
  • Carte satellitaire
  • Carte météo
  • Widgets météo
  • user-avatar
    Se connecter

    Météo par heure à Paris

    Ce jour, 23 Mars, Samedi

    Heure Température Précipitation Vent Pression Humidité
    00:00 +11°C° 0 mm 1 m/s 766 mmHg 62%
    01:00 +11°C° 0 mm 1 m/s 766 mmHg 66%
    02:00 +10°C° 0 mm 1 m/s 766 mmHg 69%
    03:00 +10°C° 0 mm 1 m/s 766 mmHg 73%
    04:00 +9°C° 0 mm 1 m/s 766 mmHg 76%
    05:00 +9°C° 0 mm 1 m/s 767 mmHg 79%
    06:00 +9°C° 0 mm 1 m/s 767 mmHg 81%
    07:00 +10°C° 0 mm 1 m/s 767 mmHg 77%
    08:00 +11°C° 0 mm 1 m/s 767 mmHg 73%
    09:00 +12°C° 0 mm 2 m/s 767 mmHg 68%
    10:00 +13°C° 0 mm 2 m/s 767 mmHg 63%
    11:00 +15°C° 0 mm 1 m/s 767 mmHg 57%
    12:00 +16°C° 0 mm 1 m/s 767 mmHg 52%
    13:00 +17°C° 0 mm 2 m/s 767 mmHg 51%
    14:00 +17°C° 0 mm 2 m/s 766 mmHg 50%
    15:00 +17°C° 0 mm 2 m/s 766 mmHg 48%
    16:00 +16°C° 0 mm 3 m/s 766 mmHg 54%
    17:00 +14°C° 0 mm 3 m/s 766 mmHg 59%
    18:00 +13°C° 0 mm 3 m/s 766 mmHg 64%
    19:00 +12°C° 0 mm 3 m/s 766 mmHg 68%
    20:00 +12°C° 0 mm 3 m/s 766 mmHg 72%
    21:00 +11°C° 0 mm 3 m/s 767 mmHg 76%
    22:00 +10°C° 0 mm 2 m/s 767 mmHg 77%
    23:00 +10°C° 0 mm 2 m/s 766 mmHg 79%

    Demain, 24 Mars, Dimanche

    Heure Température Précipitation Vent Pression Humidité
    00:00 +10°C° 0 mm 2 m/s 766 mmHg 81%
    01:00 +9°C° 0 mm 2 m/s 766 mmHg 83%
    02:00 +9°C° 0 mm 2 m/s 766 mmHg 85%
    03:00 +8°C° 0 mm 2 m/s 766 mmHg 87%
    04:00 +8°C° 0 mm 2 m/s 766 mmHg 88%
    05:00 +7°C° 0 mm 2 m/s 766 mmHg 90%
    06:00 +7°C° 0 mm 2 m/s 766 mmHg 91%
    07:00 +8°C° 0 mm 2 m/s 766 mmHg 87%
    08:00 +9°C° 0 mm 2 m/s 766 mmHg 84%
    09:00 +9°C° 0 mm 2 m/s 767 mmHg 80%
    10:00 +12°C° 0 mm 2 m/s 766 mmHg 73%
    11:00 +13°C° 0 mm 3 m/s 766 mmHg 67%
    12:00 +14°C° 0 mm 3 m/s 766 mmHg 60%
    13:00 +14°C° 0 mm 3 m/s 766 mmHg 58%
    14:00 +15°C° 0 mm 4 m/s 766 mmHg 56%
    15:00 +15°C° 0 mm 4 m/s 766 mmHg 53%
    16:00 +14°C° 0 mm 4 m/s 766 mmHg 56%
    17:00 +13°C° 0 mm 4 m/s 766 mmHg 59%
    18:00 +12°C° 0 mm 4 m/s 766 mmHg 62%
    19:00 +11°C° 0 mm 4 m/s 767 mmHg 60%
    20:00 +10°C° 0 mm 4 m/s 767 mmHg 58%
    21:00 +8°C° 0 mm 4 m/s 767 mmHg 55%
    22:00 +8°C° 0 mm 3 m/s 768 mmHg 56%
    23:00 +8°C° 0 mm 3 m/s 768 mmHg 56%

    Après-demain, 25 Mars, Lundi

    Heure Température Précipitation Vent Pression Humidité
    00:00 +7°C° 0 mm 3 m/s 768 mmHg 56%
    01:00 +7°C° 0 mm 3 m/s 768 mmHg 58%
    02:00 +5°C° 0 mm 3 m/s 767 mmHg 60%
    03:00 +6°C° 0 mm 2 m/s 767 mmHg 62%
    04:00 +6°C° 0 mm 2 m/s 768 mmHg 66%
    05:00 +6°C° 0 mm 2 m/s 768 mmHg 69%
    06:00 +5°C° 0 mm 3 m/s 768 mmHg 73%
    07:00 +7°C° 0 mm 3 m/s 768 mmHg 69%
    08:00 +8°C° 0 mm 3 m/s 768 mmHg 66%
    09:00 +8°C° 0 mm 4 m/s 768 mmHg 62%
    10:00 +8°C° 0 mm 4 m/s 768 mmHg 61%
    11:00 +10°C° 0 mm 4 m/s 768 mmHg 59%
    12:00 +9°C° 0 mm 5 m/s 768 mmHg 58%
    13:00 +9°C° 0 mm 5 m/s 768 mmHg 55%
    14:00 +9°C° 0 mm 5 m/s 768 mmHg 53%
    15:00 +9°C° 0 mm 5 m/s 768 mmHg 51%
    16:00 +9°C° 0 mm 5 m/s 768 mmHg 51%
    17:00 +8°C° 0 mm 4 m/s 769 mmHg 51%
    18:00 +8°C° 0 mm 4 m/s 769 mmHg 51%
    19:00 +7°C° 0 mm 4 m/s 769 mmHg 55%
    20:00 +7°C° 0 mm 4 m/s 770 mmHg 59%
    21:00 +6°C° 0 mm 5 m/s 771 mmHg 63%
    22:00 +5°C° 0 mm 4 m/s 771 mmHg 66%
    23:00 +5°C° 0 mm 4 m/s 771 mmHg 70%

    26 Mars, Mardi

    Heure Température Précipitation Vent Pression Humidité
    00:00 +4°C° 0 mm 4 m/s 771 mmHg 73%
    01:00 +4°C° 0 mm 4 m/s 771 mmHg 75%
    02:00 +4°C° 0 mm 3 m/s 771 mmHg 78%
    03:00 +3°C° 0 mm 3 m/s 771 mmHg 80%
    04:00 +3°C° 0 mm 3 m/s 771 mmHg 81%
    05:00 +3°C° 0 mm 3 m/s 771 mmHg 82%
    06:00 +2°C° 0 mm 3 m/s 772 mmHg 82%
    07:00 +4°C° 0 mm 3 m/s 772 mmHg 76%
    08:00 +5°C° 0 mm 3 m/s 772 mmHg 70%
    09:00 +7°C° 0 mm 3 m/s 772 mmHg 63%
    10:00 +8°C° 0 mm 3 m/s 772 mmHg 56%
    11:00 +10°C° 0 mm 3 m/s 772 mmHg 49%
    12:00 +11°C° 0 mm 3 m/s 772 mmHg 42%
    13:00 +12°C° 0 mm 3 m/s 772 mmHg 40%
    14:00 +12°C° 0 mm 3 m/s 771 mmHg 38%
    15:00 +13°C° 0 mm 3 m/s 771 mmHg 36%
    16:00 +12°C° 0 mm 3 m/s 771 mmHg 39%
    17:00 +11°C° 0 mm 3 m/s 771 mmHg 43%
    18:00 +11°C° 0 mm 3 m/s 770 mmHg 46%
    19:00 +10°C° 0 mm 3 m/s 771 mmHg 50%
    20:00 +9°C° 0 mm 2 m/s 771 mmHg 53%
    21:00 +8°C° 0 mm 2 m/s 771 mmHg 57%
    22:00 +8°C° 0 mm 2 m/s 771 mmHg 60%
    23:00 +7°C° 0 mm 2 m/s 771 mmHg 64%

    27 Mars, Mercredi

    Heure Température Précipitation Vent Pression Humidité
    00:00 +7°C° 0 mm 2 m/s 771 mmHg 68%
    01:00 +6°C° 0 mm 2 m/s 771 mmHg 70%
    02:00 +7°C° 0 mm 1 m/s 771 mmHg 72%
    03:00 +7°C° 0 mm 1 m/s 771 mmHg 74%
    04:00 +6°C° 0 mm 1 m/s 771 mmHg 75%
    05:00 +6°C° 0 mm 1 m/s 771 mmHg 75%
    06:00 +6°C° 0 mm 1 m/s 771 mmHg 76%
    07:00 +6°C° 0 mm 2 m/s 771 mmHg 69%
    08:00 +8°C° 0 mm 2 m/s 771 mmHg 62%
    09:00 +9°C° 0 mm 2 m/s 771 mmHg 55%
    10:00 +10°C° 0 mm 2 m/s 771 mmHg 51%
    11:00 +13°C° 0 mm 2 m/s 771 mmHg 47%
    12:00 +14°C° 0 mm 2 m/s 771 mmHg 43%
    13:00 +15°C° 0 mm 2 m/s 771 mmHg 42%
    14:00 +16°C° 0 mm 2 m/s 770 mmHg 42%
    15:00 +16°C° 0 mm 2 m/s 770 mmHg 41%
    16:00 +15°C° 0 mm 2 m/s 770 mmHg 46%
    17:00 +15°C° 0 mm 2 m/s 770 mmHg 52%
    18:00 +13°C° 0 mm 3 m/s 770 mmHg 57%
    19:00 +12°C° 0 mm 3 m/s 770 mmHg 60%
    20:00 +12°C° 0 mm 3 m/s 770 mmHg 64%
    21:00 +11°C° 0 mm 3 m/s 770 mmHg 67%
    22:00 +10°C° 0 mm 3 m/s 770 mmHg 70%
    23:00 +10°C° 0 mm 3 m/s 770 mmHg 73%

    28 Mars, Jeudi

    Heure Température Précipitation Vent Pression Humidité
    00:00 +9°C° 0 mm 3 m/s 770 mmHg 77%
    01:00 +9°C° 0 mm 3 m/s 770 mmHg 78%
    02:00 +8°C° 0 mm 3 m/s 770 mmHg 80%
    03:00 +8°C° 0 mm 2 m/s 770 mmHg 81%
    04:00 +7°C° 0 mm 2 m/s 770 mmHg 83%
    05:00 +7°C° 0 mm 2 m/s 770 mmHg 84%
    06:00 +7°C° 0 mm 2 m/s 770 mmHg 85%
    07:00 +8°C° 0 mm 2 m/s 770 mmHg 80%
    08:00 +9°C° 0 mm 3 m/s 770 mmHg 75%
    09:00 +10°C° 0 mm 3 m/s 770 mmHg 70%
    10:00 +12°C° 0 mm 3 m/s 770 mmHg 66%
    11:00 +13°C° 0 mm 3 m/s 770 mmHg 61%
    12:00 +16°C° 0 mm 3 m/s 770 mmHg 56%
    13:00 +14°C° 0 mm 4 m/s 769 mmHg 57%
    14:00 +14°C° 0 mm 4 m/s 769 mmHg 59%
    15:00 +14°C° 0 mm 4 m/s 769 mmHg 60%
    16:00 +14°C° 0 mm 4 m/s 769 mmHg 61%
    17:00 +13°C° 0 mm 4 m/s 769 mmHg 62%
    18:00 +13°C° 0 mm 3 m/s 769 mmHg 63%
    19:00 +12°C° 0 mm 3 m/s 769 mmHg 66%
    20:00 +11°C° 0 mm 3 m/s 769 mmHg 69%
    21:00 +10°C° 0 mm 3 m/s 769 mmHg 72%
    22:00 +10°C° 0 mm 3 m/s 769 mmHg 74%
    23:00 +9°C° 0 mm 3 m/s 769 mmHg 75%
    Voir plus